| time (UTC) | temp F | wind direction | speed MPH | gust MPH | rain 1hr in | rain 24hr in | rain mn in | humidity % | barometer mb |
| 20260502161504 | 53 | 0 | 0.0 | 0.0 | 0.03 | 0.21 | 0.21 | 91 | 1013.5 |
| 20260502151504 | 54 | 0 | 0.0 | 0.0 | 0.07 | 0.18 | 0.18 | 90 | 1014.1 |
| 20260502113004 | 60 | 0 | 0.0 | 0.0 | 0.00 | 0.00 | 0.00 | 71 | 1016.6 |
| 20260502111503 | 60 | 0 | 0.0 | 0.0 | 0.00 | 0.00 | 0.00 | 69 | 1016.8 |
| 20260502110003 | 60 | 0 | 0.0 | 0.0 | 0.00 | 0.00 | 0.00 | 71 | 1016.9 |
| 20260502070005 | 53 | 0 | 0.0 | 0.0 | 0.00 | 0.00 | 0.00 | 90 | 1018.9 |
| 20260502064505 | 53 | 0 | 0.0 | 0.0 | 0.00 | 0.00 | 0.00 | 91 | 1018.9 |
| 20260502054505 | 47 | 0 | 0.0 | 0.0 | 0.00 | 0.07 | 0.00 | 93 | 1019.3 |
| 20260502053005 | 47 | 0 | 0.0 | 0.0 | 0.00 | 0.07 | 0.00 | 93 | 1019.4 |
| 20260502044505 | 46 | 0 | 0.0 | 0.0 | 0.00 | 0.07 | 0.00 | 93 | 1019.4 |
| 20260502043005 | 46 | 0 | 0.0 | 0.0 | 0.00 | 0.07 | 0.00 | 93 | 1019.4 |
| 20260502041505 | 46 | 0 | 0.0 | 0.0 | 0.00 | 0.07 | 0.00 | 93 | 1019.4 |
| 20260502034505 | 46 | 0 | 0.0 | 0.0 | 0.00 | 0.07 | 0.00 | 93 | 1019.4 |
| 20260502033005 | 46 | 0 | 0.0 | 0.0 | 0.00 | 0.07 | 0.00 | 93 | 1019.5 |
| 20260502031505 | 45 | 0 | 0.0 | 0.0 | 0.00 | 0.07 | 0.00 | 92 | 1019.8 |
| 20260502024505 | 45 | 0 | 0.0 | 0.0 | 0.00 | 0.07 | 0.00 | 92 | 1020.0 |
| 20260502023005 | 45 | 0 | 0.0 | 0.0 | 0.00 | 0.07 | 0.00 | 92 | 1020.1 |
| 20260502021505 | 46 | 0 | 0.0 | 0.0 | 0.00 | 0.07 | 0.00 | 92 | 1020.2 |
| 20260502014504 | 46 | 0 | 0.0 | 0.0 | 0.00 | 0.07 | 0.00 | 92 | 1020.5 |
| 20260502011504 | 46 | 0 | 0.0 | 0.0 | 0.00 | 0.07 | 0.00 | 91 | 1020.7 |
| 20260502004504 | 47 | 0 | 0.0 | 0.0 | 0.00 | 0.07 | 0.00 | 91 | 1020.8 |
| 20260502000005 | 47 | 0 | 0.0 | 0.0 | 0.00 | 0.07 | 0.00 | 90 | 1021.0 |
| 20260501234505 | 48 | 0 | 0.0 | 0.0 | 0.00 | 0.07 | 0.00 | 90 | 1021.1 |
| 20260501231505 | 50 | 0 | 0.0 | 0.0 | 0.00 | 0.07 | 0.00 | 90 | 1021.1 |
| 20260501224505 | 52 | 0 | 0.0 | 0.0 | 0.00 | 0.07 | 0.07 | 91 | 1021.2 |
| 20260501223005 | 52 | 0 | 0.0 | 0.0 | 0.00 | 0.07 | 0.07 | 91 | 1021.4 |
| 20260501213004 | 50 | 0 | 0.0 | 0.0 | 0.00 | 0.07 | 0.07 | 89 | 1021.5 |
| 20260501204505 | 52 | 0 | 0.0 | 0.0 | 0.00 | 0.07 | 0.07 | 88 | 1021.2 |
| 20260501200004 | 55 | 0 | 0.0 | 0.0 | 0.00 | 0.07 | 0.07 | 85 | 1020.8 |
| 20260501194505 | 56 | 0 | 0.0 | 0.0 | 0.00 | 0.07 | 0.07 | 84 | 1020.7 |
| 20260501193004 | 57 | 0 | 0.0 | 0.0 | 0.00 | 0.07 | 0.07 | 82 | 1020.6 |
| 20260501191504 | 57 | 0 | 0.0 | 0.0 | 0.00 | 0.07 | 0.07 | 81 | 1020.6 |
| 20260501190004 | 58 | 0 | 0.0 | 0.0 | 0.00 | 0.07 | 0.07 | 79 | 1020.5 |
| 20260501184504 | 59 | 0 | 0.0 | 0.0 | 0.00 | 0.07 | 0.07 | 77 | 1020.5 |
| 20260501183004 | 60 | 0 | 0.0 | 0.0 | 0.00 | 0.07 | 0.07 | 76 | 1020.4 |